• Join FlightAware (Why Join?)
  • Login
  • US Flag 
07:09PM EDT


 

Airport Tracker/Info


-or-


 

Live Flight TrackerFlight Track Log ✈ LRT44 ✈ 07-Dec-2013 ✈ KPNE - KISP

Flight Track Log - Related Links

Times and Time Zones

All times are in EST time to prevent confusion due to time zone crossing. See the LRT44 flight status page for this flight to view local times or setup timezone preferences in your user account.

Time Position Orientation Groundspeed Altitude Reporting Facility
EST Latitude Longitude Course Direction KTS MPH feet Rate Location/Type
01:31PM 40.0667 -75.0333 123° Southeast 220 253 1,000  Level Philadelphia TRACON
01:32PM 40.0333 -74.9667 123° Southeast 270 311 3,000 840 Climbing Philadelphia TRACON
01:34PM 40.1163 -74.8344 66° East  Level FlightAware Approximate
01:35PM 40.1078 -74.6653 66° East 265 305 5,000  Level New York Center
01:36PM 40.0922 -74.5669 102° East 284 327 5,000  Level New York Center
01:37PM 40.0689 -74.4461 104° East 284 327 5,100 480 Climbing New York Center
01:38PM 40.0569 -74.3614 100° East 302 348 6,000 420 Climbing New York Center
01:39PM 40.0333 -74.2383 104° East 302 348 6,000  Level New York Center
01:40PM 40.0136 -74.1342 104° East 302 348 6,000  Level New York Center
01:41PM 39.9958 -74.0278 102° East 302 348 6,100 600 Climbing New York Center
01:42PM 39.9900 -73.9300 94° East 296 341 7,200 900 Climbing New York Center
01:43PM 39.9806 -73.8131 96° East 316 364 8,000 360 Climbing New York Center
01:44PM 39.9733 -73.6936 94° East 321 369 8,000 480 Level New York Center
01:45PM 39.9947 -73.5886 75° East 302 348 9,000 480 Climbing New York Center
01:46PM 40.0592 -73.4992 47° Northeast 302 348 9,000  Level New York Center
01:49PM 40.1933 -73.2950 49° Northeast 340 391 9,000  Level Boston Center
01:50PM 40.2569 -73.2003 49° Northeast 343 395 9,000  Level Boston Center
01:51PM 40.3183 -73.1081 49° Northeast 342 394 9,000 -180 Level Boston Center
01:52PM 40.3803 -73.0150 49° Northeast 341 392 8,700 -660 Descending Boston Center
01:53PM 40.4389 -72.9253 49° Northeast 334 384 7,700 -1,260 Descending Boston Center
01:54PM 40.4947 -72.8456 47° Northeast 317 365 6,200 -1,620 Descending Boston Center
01:55PM 40.5578 -72.8631 348° North 263 303 4,500 -1,440 Descending Boston Center
01:57PM 40.6667 -72.9667 324° Northwest 223 257 2,000 -960 Descending New York TRACON
01:58PM 40.7167 -73.0167 323° Northwest 194 223 1,700 -360 Descending New York TRACON
01:59PM 40.7500 -73.0500 323° Northwest 165 190 1,300 -720 Descending New York TRACON
02:00PM 40.7833 -73.0833 323° Northwest 140 161 400 -900 Descending New York TRACON